Regional Weather Roundup
Issued by NWS

Home | Current Version | Previous Version | Text Only | Print | Product List | Glossary On
Versions: 1 2 3 4 5 6 7 8 9 10 11 12 13 14 15 16 17 18 19 20 21 22 23 24 25 26 27 28 29 30 31 32 33 34 35 36 37 38 39 40 41 42 43 44 45 46 47 48 49 50
000
ASUS45 KABQ 250710
RWRNM
NEW MEXICO REGIONAL WEATHER ROUNDUP
NATIONAL WEATHER SERVICE ALBUQUERQUE NM
100 AM MDT WED MAY 25 2016

NOTE: "FAIR" MEANS FEW OR NO CLOUDS BELOW 12,000 FEET AGL WITH NO
       SIGNIFICANT WEATHER OR OBSTRUCTIONS TO VISION.

      THIS PRODUCT IS RELEASED AS TWO VERSIONS.  ONE VERSION NEAR
      THE TOP OF THE HOUR CONTAINING PRELIMINARY DATA FROM ALBUQUERQUE
      AND OTHER STATIONS.  A FINAL VERSION WITH ADDITIONAL DATA IS
      ISSUED ABOUT 10 MINUTES AFTER THE HOUR.

NMZ501-503-504-510>518-250800-
NORTHWEST PLATEAU/NORTHCENTRAL MOUNTAINS

CITY           SKY/WX    TMP DP  RH WIND       PRES   REMARKS
FARMINGTON     FAIR      53  32  44 W5        30.05R
LOS ALAMOS     FAIR      58   6  12 W20G29    30.12R
SANTA FE       FAIR      53  10  18 E6        30.09R
TAOS           FAIR      48  10  21 SW9       30.13S
ANGEL FIRE     FAIR      41  16  37 CALM      30.18S

$$
NMZ402-403-502-505>509-250800-
WESTCENTRAL MOUNTAINS/SOUTHWEST MOUNTAINS

CITY           SKY/WX    TMP DP  RH WIND       PRES   REMARKS
GALLUP         FAIR      46  14  27 E3        30.13S
GRANTS         FAIR      45   9  22 NW14G20   30.13S
SILVER CITY      N/A     54  16  22 NW10      30.12S

$$
NMZ407-409-411-412-250800-
SOUTHERN DESERTS

CITY           SKY/WX    TMP DP  RH WIND       PRES   REMARKS
LORDSBURG      FAIR      61  12  15 CALM      30.07R
DEMING         FAIR      67  20  16 W13       30.05R
LAS CRUCES     FAIR      61  16  17 W8        30.05R
HOLLOMAN AFB   FAIR      71  18  13 SE5       30.00R
ALAMOGORDO     FAIR      66  18  15 S9        30.02R
T OR C         FAIR      64  20  18 W9        30.02S

$$
NMZ519>523-250800-
CENTRAL VALLEYS/CENTRAL HIGHLANDS

CITY           SKY/WX    TMP DP  RH WIND       PRES   REMARKS
ALBUQUERQUE    FAIR      66  12  12 CALM      30.06S
DOUBLE EAGLE   FAIR      52  13  21 W5        30.08S
MORIARTY ARPT  FAIR      53  10  18 W7        30.10S
CLINES CORNERS FAIR      51  12  21 W16       30.11S
BELEN          FAIR      58  11  15 W6        30.06R
SOCORRO        FAIR      64  17  16 CALM      30.02S

$$
NMZ524>526-539-540-250800-
SOUTHCENTRAL MOUNTAINS

CITY           SKY/WX    TMP DP  RH WIND       PRES   REMARKS
RUIDOSO          N/A     57  18  21 SW9       30.16S

$$
NMZ527>531-250800-
NORTHEAST HIGHLANDS/NORTHEAST PLAINS

CITY           SKY/WX    TMP DP  RH WIND       PRES   REMARKS
LAS VEGAS      FAIR      54  12  18 W9        30.09R
RATON          FAIR      54  21  27 VRB5      30.00R
CLAYTON        FAIR      58  25  28 W18       29.91R

$$
NMZ532>537-250800-
EASTCENTRAL PLAINS

CITY           SKY/WX    TMP DP  RH WIND       PRES   REMARKS
TUCUMCARI      FAIR      64  24  21 SW7       29.90R
CANNON AFB     FAIR      61  27  27 VRB5      29.95S
CLOVIS AIRPORT FAIR      61  30  31 W12       29.94S

$$
NMZ028-029-538-250800-
SOUTHEAST PLAINS

CITY           SKY/WX    TMP DP  RH WIND       PRES   REMARKS
ROSWELL        FAIR      62  20  19 SW8       29.94R
ARTESIA        FAIR      68  14  12 W14       29.95S
CARLSBAD       FAIR      67  18  15 W12       29.93S
HOBBS          FAIR      64  54  68 S9        29.97F


$$



USA.gov is the U.S. government's official web portal to all federal, state and local government web resources and services.